Theta_e
280 280 281 281 282 282 282 283 283 283 283 283 284 284 286 287 287 288 289 288 288 288 288 289 291 292 293 296 298 299 300 301 301 302 303 303 304 304 305 306 307 308 309 309 310 310 311 312 312 313 314 313 313 313 313 313 314 314 315 315 316 316 317 317 318 320 324 328 331 333 335 336 337 338 339 339 339 338 337 337 336 336 336 336 337 337
280 280 280 281 281 281 282 282 283 282 283 283 283 284 285 286 286 287 287 287 287 288 288 289 290 291 292 294 296 298 299 300 300 301 302 302 303 304 304 306 306 307 308 309 309 310 310 311 312 313 313 313 313 313 313 313 314 314 315 315 315 316 316 317 318 319 321 326 329 332 334 335 337 337 338 339 338 338 337 336 335 335 335 336 336 337
279 279 279 280 280 281 281 282 283 283 283 283 283 284 285 285 286 286 286 287 288 288 288 289 290 291 291 293 295 298 298 299 300 300 301 302 303 303 304 305 306 307 307 308 309 309 310 311 312 313 313 313 313 313 313 313 314 314 314 315 315 315 316 316 316 317 319 324 328 330 332 334 335 337 338 338 337 337 336 335 334 334 335 335 336 337
278 278 278 279 280 281 282 283 283 283 283 283 284 284 285 285 285 286 286 287 287 288 288 289 289 290 291 293 294 296 298 298 299 299 300 301 302 303 304 305 306 306 307 308 308 309 309 311 312 313 314 314 314 314 314 314 314 314 314 314 315 315 315 315 315 316 317 321 325 328 330 332 333 334 335 335 335 335 334 334 333 334 335 335 336 337
277 278 278 279 280 281 282 283 283 283 284 283 284 284 285 285 285 285 286 287 287 287 287 288 289 290 291 292 293 296 297 297 298 299 299 300 301 303 304 305 306 306 307 308 308 309 310 311 312 313 313 314 314 315 315 315 314 314 314 314 314 314 314 315 315 315 316 319 323 327 329 330 331 331 332 333 333 333 333 334 334 334 335 336 336 337
277 278 278 279 280 281 282 283 283 283 283 283 283 284 284 284 285 285 286 286 286 287 287 288 289 290 291 291 293 295 296 296 297 298 299 300 301 302 303 304 306 306 307 308 308 309 310 310 311 313 313 314 314 315 315 315 315 314 314 314 314 314 314 314 314 315 315 318 322 325 327 328 328 329 330 331 331 332 332 333 334 334 335 335 336 336
277 278 279 279 280 281 282 283 283 283 282 282 283 283 283 284 284 285 286 286 285 286 286 287 289 290 290 291 292 293 294 295 296 297 298 299 300 301 302 304 305 306 306 307 308 308 309 310 311 312 313 314 314 315 315 315 314 314 314 314 314 314 314 314 314 315 315 318 320 323 325 326 326 327 328 329 329 330 330 331 333 334 334 335 335 336
276 277 278 278 279 280 282 282 282 282 282 282 282 282 282 283 284 284 284 285 285 285 286 287 288 288 289 289 290 291 291 292 293 295 297 298 299 300 301 302 303 305 306 307 307 308 309 310 311 312 313 314 314 314 315 314 314 314 313 313 313 314 314 314 315 315 316 317 320 322 323 324 324 325 326 327 328 328 329 330 331 333 334 334 335 335
276 276 277 278 279 279 280 281 281 282 282 282 282 281 281 282 282 282 282 283 284 285 285 286 286 287 287 288 289 289 290 291 292 293 295 295 296 297 299 300 302 303 305 306 307 307 308 309 310 312 312 313 314 314 315 315 314 314 313 313 313 313 314 314 315 315 316 318 320 321 322 323 323 323 324 325 326 327 327 328 330 331 333 333 333 334
276 276 276 278 279 279 279 279 280 281 282 282 282 282 281 281 281 281 280 281 282 283 285 285 285 285 286 287 288 288 290 291 293 294 295 295 295 296 297 299 300 302 304 305 306 307 308 309 310 311 312 313 314 315 315 315 314 314 314 313 314 314 314 314 315 316 317 318 320 321 322 322 322 322 323 324 324 325 326 327 328 329 330 331 332 333
276 276 276 277 278 279 279 279 280 281 281 281 281 281 281 281 281 280 279 279 281 282 283 284 285 285 285 286 286 288 289 291 292 293 293 294 295 296 297 298 299 301 303 304 305 306 307 308 310 312 313 314 314 315 315 315 315 314 314 314 314 314 314 315 315 316 317 319 321 321 322 322 322 322 322 323 323 324 325 325 326 327 328 329 331 331
275 276 276 277 278 278 279 279 280 280 280 280 279 279 279 281 281 280 279 279 280 281 282 283 284 285 285 285 286 287 289 290 290 290 290 291 292 294 295 296 298 300 301 303 304 305 307 309 311 312 313 314 315 315 316 315 314 314 314 314 314 314 314 315 315 317 318 320 321 321 322 322 322 322 322 322 322 323 323 323 324 325 326 328 329 330
275 276 276 277 277 277 278 278 278 279 279 278 278 277 278 280 281 281 280 279 280 281 281 282 283 284 285 286 286 288 290 289 289 288 288 289 290 291 292 294 295 297 299 300 302 304 307 309 312 313 313 314 315 315 316 315 314 314 314 314 314 314 314 314 315 317 318 320 321 321 322 322 322 322 322 322 322 322 322 322 323 324 325 326 327 328
275 275 275 276 276 276 277 277 277 277 277 278 278 278 278 279 280 280 279 279 280 281 282 282 282 282 284 285 287 289 290 288 287 286 287 287 289 290 291 292 294 295 297 298 300 302 306 310 312 313 313 314 315 315 315 314 314 314 314 314 314 314 314 314 315 317 319 320 321 321 321 321 321 322 322 321 321 321 321 322 322 323 324 325 326 327
274 274 274 275 275 276 276 276 277 277 277 278 278 279 279 279 280 279 279 278 279 280 281 281 281 281 282 284 287 289 288 286 285 285 285 286 288 289 290 291 293 295 297 297 299 302 306 310 312 312 313 314 314 315 315 314 314 314 314 314 314 314 314 314 315 317 318 319 320 320 321 321 321 321 321 321 321 321 321 321 322 323 324 324 325 326
274 274 274 274 275 275 276 276 277 277 277 278 278 278 278 278 278 279 278 278 279 280 280 279 279 279 280 283 286 287 287 285 284 284 284 285 287 289 290 291 292 293 295 297 298 301 306 311 313 314 314 314 314 315 314 314 314 314 314 314 314 314 314 314 315 317 318 319 319 320 320 320 321 321 321 321 321 321 321 321 321 322 323 324 324 325
274 274 274 274 274 275 276 276 277 277 277 277 278 278 278 278 278 278 278 278 278 279 279 278 277 277 278 281 283 286 286 284 283 283 283 284 286 288 290 290 291 292 294 296 298 300 304 311 313 314 314 314 314 314 314 314 314 314 314 314 314 314 313 314 315 316 317 318 319 319 320 320 320 320 320 320 320 320 320 320 321 321 322 323 324 324
274 274 274 274 274 275 275 276 276 277 277 277 277 278 278 278 278 278 278 278 278 278 278 278 277 277 277 278 280 283 285 284 283 283 282 283 285 287 290 290 291 292 294 296 298 300 304 310 313 314 314 314 314 314 314 313 313 314 314 313 313 313 313 314 315 316 317 317 318 318 319 319 319 319 320 320 320 320 320 320 320 321 321 322 323 324
274 274 274 274 274 275 275 276 276 276 277 277 277 277 277 278 278 278 278 278 278 278 278 278 277 278 278 278 280 282 284 283 283 282 282 282 284 287 289 290 291 293 294 296 298 301 304 309 312 314 314 314 314 314 313 313 313 313 313 313 313 313 313 313 314 316 317 317 317 318 318 318 318 318 318 319 319 319 319 320 320 320 321 321 322 323
274 274 274 274 275 275 275 276 276 277 277 277 277 277 276 277 278 278 278 278 278 278 278 278 278 278 278 279 280 282 283 283 282 281 281 282 284 286 289 290 292 293 294 296 298 301 304 308 312 314 313 314 314 313 313 313 313 313 313 313 313 313 313 313 314 315 316 317 317 317 317 317 317 317 317 318 318 318 318 319 320 320 321 321 322 323
274 274 275 275 275 275 275 276 277 278 278 278 277 277 277 277 277 278 278 278 278 278 278 278 278 278 279 279 280 281 283 283 282 281 281 282 284 286 290 291 292 292 292 294 297 300 304 307 311 313 314 313 313 313 313 312 312 312 312 312 312 312 312 313 313 315 316 316 317 317 317 317 317 317 317 317 317 317 318 318 319 320 320 321 322 322
275 275 276 276 276 276 276 277 278 279 279 278 277 277 277 277 277 277 277 277 277 277 278 278 279 279 280 280 280 282 283 283 282 282 282 282 284 286 290 290 291 290 291 293 296 299 301 304 307 311 313 313 313 313 312 312 312 312 312 311 311 312 312 312 313 314 315 316 316 316 316 316 316 316 317 317 317 317 317 318 318 319 320 321 321 322
276 276 277 277 277 277 278 277 278 279 279 279 278 278 279 279 278 278 278 278 278 278 279 279 280 280 280 280 281 282 283 284 284 284 283 283 283 285 288 289 289 289 290 292 294 296 297 300 304 309 313 312 312 312 312 311 311 311 311 311 311 311 311 312 313 313 314 315 315 316 316 316 316 316 316 316 316 316 317 317 318 319 320 320 321 321
278 278 278 278 278 278 278 279 279 279 280 280 280 281 281 280 280 280 280 280 280 280 280 280 279 279 279 279 280 281 284 287 288 286 284 282 282 284 286 287 288 288 289 291 293 294 295 298 302 308 313 311 311 311 311 311 311 311 311 311 311 311 311 312 313 313 314 314 315 315 315 316 316 316 316 316 316 316 317 317 318 319 320 320 320 320
279 279 279 279 280 281 281 281 281 282 282 282 281 281 281 281 282 282 281 281 280 280 279 278 277 276 277 278 279 280 283 286 286 284 282 281 282 283 285 287 287 288 288 290 291 292 294 297 302 307 312 312 311 311 311 311 311 311 311 310 310 311 311 311 312 313 314 314 314 315 315 315 315 315 316 316 316 316 316 317 318 318 319 319 320 320
281 281 281 282 282 283 284 284 285 285 284 283 282 281 281 282 281 280 279 279 278 278 277 276 275 275 276 277 278 279 282 284 285 284 283 281 281 282 284 287 287 287 287 288 290 291 293 296 301 306 311 312 311 311 311 311 311 310 310 310 310 310 311 311 312 313 314 314 314 315 315 315 315 315 315 315 316 316 316 317 317 318 318 318 318 319
282 282 283 283 283 283 284 283 284 284 284 284 283 283 282 281 279 277 276 276 277 277 275 274 274 274 275 276 276 278 280 282 283 284 283 281 281 281 284 286 286 286 285 287 288 290 292 295 300 305 310 312 311 311 310 310 310 310 310 310 310 310 310 311 312 313 313 314 314 314 315 315 315 315 315 315 315 316 316 316 317 317 317 318 319 319
282 282 282 282 282 282 282 282 282 282 283 283 284 284 283 280 277 275 275 276 276 276 275 274 274 274 274 275 276 277 278 281 283 284 283 282 281 281 283 285 285 285 284 285 288 290 293 297 301 305 308 311 311 311 309 309 309 309 309 309 309 309 309 310 311 312 313 313 314 314 314 314 314 314 314 315 315 315 316 316 316 317 317 319 320 321
280 281 281 281 281 281 281 281 281 281 282 282 283 283 282 279 277 276 276 276 276 275 275 274 274 274 274 275 276 277 278 281 283 283 283 281 281 281 283 283 284 284 284 284 286 290 295 300 303 305 307 309 310 310 310 310 310 309 309 309 309 309 309 309 311 312 313 313 313 314 314 314 314 314 314 314 315 315 315 315 316 317 319 320 322 322
278 278 278 279 279 280 279 278 279 280 281 282 282 282 281 279 278 277 277 277 276 275 275 275 275 275 275 275 275 275 277 280 282 283 282 280 280 280 282 282 283 283 283 283 284 287 294 299 303 305 306 308 309 310 310 310 310 310 310 309 309 309 309 309 310 311 312 313 313 314 314 314 314 314 314 314 314 314 315 316 317 320 322 323 323 322
276 276 276 277 277 277 277 277 278 278 279 280 280 280 280 279 278 278 278 278 277 276 275 275 275 275 275 274 274 274 276 278 281 282 282 280 280 280 281 281 282 282 283 283 282 283 287 294 299 302 304 306 308 310 311 311 311 311 311 310 310 310 309 309 309 311 311 312 313 313 314 314 314 314 314 314 314 314 315 316 318 320 323 323 323 322
275 276 276 276 276 276 277 277 277 277 277 278 278 278 279 279 279 278 278 278 278 277 276 275 275 275 275 275 274 274 275 277 280 282 282 280 280 280 281 281 281 282 283 283 283 282 284 289 294 298 301 303 305 308 310 311 311 311 310 310 310 310 309 310 310 311 311 311 312 312 313 313 313 313 313 314 314 314 315 316 318 320 322 322 322 321
276 276 276 276 276 276 276 276 276 276 276 277 277 277 278 278 279 279 278 278 278 277 277 276 275 275 275 275 275 275 276 277 279 282 283 281 280 280 280 280 280 281 282 283 283 284 284 287 290 293 296 299 302 305 308 310 310 310 310 309 309 309 310 311 311 311 311 311 311 312 312 312 312 313 313 313 314 314 316 316 317 319 320 322 322 321
275 276 276 276 275 275 275 275 275 276 276 276 276 277 277 277 278 278 279 279 279 278 278 277 276 275 275 275 275 275 276 278 280 282 283 281 280 279 280 280 280 280 281 281 282 283 284 286 287 289 292 296 300 303 305 308 310 311 310 309 309 309 310 311 311 311 312 312 312 312 312 312 312 312 313 313 314 314 315 316 317 317 318 321 321 321
275 275 275 275 275 275 275 275 275 275 276 276 276 277 277 277 277 278 278 279 279 279 278 278 278 277 276 275 275 275 276 278 280 282 283 281 280 280 279 279 280 280 280 280 281 282 283 284 285 286 289 294 298 302 303 306 309 311 310 310 310 310 310 311 311 311 312 312 312 312 312 312 313 313 313 313 314 314 315 316 316 317 317 318 319 321
274 274 275 274 274 274 274 275 275 275 275 276 276 276 277 277 277 278 278 278 279 279 280 279 279 279 278 277 277 276 277 278 280 282 283 282 281 280 279 279 280 280 280 280 280 281 281 282 284 286 288 293 297 300 302 305 308 310 310 310 310 310 311 311 311 312 312 312 312 312 313 313 313 313 313 313 313 314 314 315 316 316 316 316 317 318
274 274 274 274 274 274 274 274 274 275 275 275 276 276 277 277 277 278 278 278 279 279 279 280 280 280 280 280 279 279 279 280 281 282 282 282 281 280 279 280 280 281 280 280 280 280 281 281 282 285 288 293 296 297 300 304 307 309 308 309 309 310 311 312 312 312 313 312 312 312 313 313 313 313 313 313 313 313 314 314 315 315 315 316 316 316
274 274 274 274 274 274 274 274 274 275 275 275 276 276 277 277 278 278 279 279 279 279 279 279 280 280 281 282 282 281 281 281 281 281 282 282 281 281 280 280 281 281 282 281 281 281 281 281 281 283 287 290 292 294 296 302 306 307 307 308 309 310 311 312 312 312 313 312 312 312 313 313 313 314 314 314 315 316 316 316 316 316 315 315 315 315
273 273 274 274 274 274 274 274 274 275 276 276 277 277 278 278 278 279 279 279 279 279 279 279 280 280 280 281 282 282 283 282 282 282 282 282 282 281 281 281 281 281 282 282 282 282 281 281 281 282 284 286 288 291 294 299 303 306 307 307 308 309 310 311 312 312 312 312 312 312 312 313 314 314 315 315 316 316 317 317 318 318 318 318 317 316
273 273 274 275 275 275 275 275 275 276 276 277 277 278 278 278 279 279 279 279 280 280 280 280 280 280 281 282 282 283 283 283 284 284 283 283 283 283 282 282 282 282 283 283 283 283 282 282 282 283 284 285 287 289 291 295 300 306 306 305 304 305 308 310 311 312 312 312 311 311 312 313 313 313 313 314 315 316 316 317 317 318 318 319 319 317
273 273 274 274 275 276 276 276 276 276 277 277 277 277 277 277 277 278 278 279 279 279 280 280 280 280 281 281 282 282 283 284 284 284 284 284 284 284 284 283 283 283 283 283 283 283 283 283 283 284 284 285 287 289 291 293 298 303 306 303 303 304 307 309 310 311 311 311 311 311 311 311 310 310 311 312 313 314 315 316 317 317 318 318 318 318
274 274 274 274 275 275 276 276 277 277 277 277 276 276 276 277 277 277 277 277 278 278 278 279 279 279 279 280 281 282 283 284 285 285 285 285 285 285 285 285 285 285 284 284 284 284 284 284 284 284 285 287 288 290 291 293 297 302 305 304 305 306 307 308 309 310 310 310 310 310 309 308 307 307 307 309 310 312 313 315 315 315 316 317 317 318
274 274 274 275 275 276 276 277 277 276 276 276 276 276 276 277 277 277 277 277 277 277 278 278 278 278 278 279 280 281 282 283 284 285 285 285 285 285 285 285 286 286 285 284 284 284 285 285 286 287 289 289 289 290 290 293 297 301 305 306 306 305 305 305 306 308 309 308 308 307 307 305 305 304 304 305 306 307 309 311 312 313 314 315 315 315
274 274 275 275 275 276 276 276 276 275 276 275 276 276 276 277 277 277 277 277 277 277 277 278 278 278 278 278 279 280 281 282 283 284 285 286 286 285 285 286 286 286 285 285 284 284 285 286 287 288 289 289 290 291 292 294 297 301 305 306 305 303 303 304 305 306 306 305 305 305 304 303 303 302 302 302 302 303 305 307 309 310 311 312 313 314
274 274 275 275 275 275 275 275 275 275 275 275 275 276 276 277 277 277 277 276 277 277 277 277 277 277 277 277 278 279 280 281 282 283 284 285 286 287 286 285 286 286 286 286 285 285 285 285 286 287 289 290 292 293 293 294 296 300 304 305 305 304 304 305 305 304 303 302 302 303 303 303 303 302 300 300 299 300 302 303 305 307 308 310 311 311
274 274 274 274 274 274 275 275 275 275 275 275 275 276 276 276 277 277 277 276 276 276 277 277 277 276 276 277 277 278 278 279 280 281 282 283 284 285 285 286 286 287 287 286 286 286 286 286 286 287 289 291 292 292 291 291 294 297 302 304 305 304 304 303 303 303 302 302 302 302 303 304 303 301 299 298 298 298 299 300 302 303 305 307 309 309
273 273 273 273 273 274 274 274 275 275 275 275 275 276 276 276 276 276 276 276 276 276 277 277 276 276 276 276 277 277 277 278 279 280 281 282 283 284 285 285 286 286 287 287 287 287 287 287 287 287 288 289 289 289 290 291 292 294 297 301 303 303 301 301 301 302 302 302 302 302 303 303 302 300 299 298 297 297 298 299 299 300 302 304 306 308
273 273 273 273 273 273 273 274 274 274 274 275 275 275 276 276 276 276 276 276 276 276 276 276 276 276 276 276 277 277 278 278 278 279 280 281 282 283 284 284 285 286 287 288 288 288 288 288 288 288 288 287 287 287 288 290 291 292 294 297 299 300 299 298 299 300 301 301 302 302 303 303 301 300 299 298 297 297 297 297 298 299 300 302 303 305
273 273 273 273 273 273 273 273 274 274 274 274 275 275 275 276 277 277 276 276 276 276 276 275 275 275 275 276 276 277 278 278 278 278 279 280 281 282 283 283 284 285 286 287 288 288 288 289 289 290 290 288 287 287 287 289 290 292 293 295 297 297 297 297 297 298 299 300 300 301 303 303 302 301 300 298 296 296 296 296 297 298 299 300 302 304
273 274 274 273 273 273 273 273 274 274 274 275 275 275 275 275 275 276 276 276 276 276 275 275 275 275 275 275 276 277 277 277 277 278 279 280 280 281 282 283 283 284 285 286 287 287 287 288 289 290 292 291 289 288 287 288 289 291 293 294 295 296 296 296 297 297 298 299 299 300 301 301 301 301 300 298 296 295 295 296 296 297 299 300 301 303
273 274 274 273 273 273 273 273 274 274 274 275 275 274 274 275 275 275 275 275 275 275 275 275 275 275 275 276 276 276 277 277 277 277 278 279 280 281 281 282 282 283 284 285 286 286 286 286 286 287 289 291 291 290 288 288 288 290 291 292 293 294 295 295 296 297 298 299 299 299 299 300 300 300 300 298 297 295 295 295 295 296 298 299 301 303
Wind_Speed
8 8 9 10 11 10 9 9 8 8 8 8 8 9 9 11 10 10 12 12 11 10 10 10 10 11 12 15 17 19 19 19 19 19 20 21 22 23 23 23 22 20 19 19 19 19 20 21 21 20 19 17 15 14 14 14 15 16 17 17 18 18 19 20 21 20 19 17 19 22 25 26 27 27 28 28 28 28 29 30 33 36 39 38 34 31
8 8 8 10 11 11 9 9 8 7 8 9 9 10 10 10 10 9 9 10 10 10 10 10 11 11 11 13 16 18 18 18 19 19 20 21 22 23 23 23 23 22 21 20 20 20 21 22 22 21 20 18 16 15 14 15 15 16 16 17 17 18 19 20 21 21 20 18 19 21 24 25 27 27 28 28 28 29 30 31 34 37 39 37 34 31
8 8 8 9 10 10 9 9 8 7 8 9 10 10 11 11 10 9 8 9 10 10 10 10 11 11 11 12 14 17 18 18 19 19 20 21 22 22 23 23 23 22 21 21 21 21 21 22 22 21 20 17 16 15 14 14 14 15 15 16 17 18 19 20 21 21 21 19 19 21 24 25 26 27 27 28 28 29 30 32 34 37 39 36 33 30
8 8 8 8 9 9 9 8 7 7 7 8 9 11 11 10 9 8 8 9 9 9 9 11 11 11 10 10 12 15 18 19 19 20 21 21 22 22 22 23 22 22 21 21 21 21 22 23 22 21 19 17 15 14 14 14 13 13 14 15 16 17 18 19 20 21 21 20 20 21 24 25 26 26 27 27 27 28 29 31 34 37 39 36 33 30
8 8 8 8 8 8 8 7 7 7 7 7 9 10 10 8 8 8 8 8 9 9 9 10 10 10 9 9 11 14 18 19 20 21 21 21 21 22 22 22 22 21 21 21 21 21 22 23 22 21 19 17 15 14 14 13 12 12 13 14 15 16 17 19 20 21 21 21 20 22 24 25 25 26 26 26 26 27 28 30 33 35 37 35 32 30
8 8 8 8 8 7 7 7 7 7 7 7 8 8 9 8 7 8 8 8 8 8 8 8 8 9 9 9 11 15 18 19 20 21 21 21 21 21 21 21 21 21 20 20 21 21 22 23 22 21 19 17 16 15 14 13 12 12 12 13 15 16 17 19 20 21 22 21 21 22 23 24 24 25 25 25 26 26 27 29 31 32 33 32 30 29
8 7 7 7 7 7 6 6 7 7 6 7 7 7 8 7 7 7 7 7 7 7 8 8 8 8 9 10 12 14 16 17 18 19 19 19 19 19 20 20 21 21 20 20 21 21 22 23 23 21 19 18 17 16 15 13 11 11 12 13 15 16 18 20 21 22 23 22 21 21 22 23 24 24 25 25 25 26 27 29 30 30 30 29 28 27
8 7 7 7 7 7 6 6 6 6 6 6 7 7 8 7 7 6 6 6 6 6 7 7 7 7 8 9 10 11 12 13 13 14 15 16 16 17 19 20 20 21 21 21 21 21 23 24 23 22 20 19 18 17 15 12 11 10 11 13 15 17 19 21 23 24 24 22 21 21 22 22 23 23 24 25 25 26 27 29 30 30 30 29 27 26
9 8 7 7 7 7 7 5 5 5 5 6 6 7 8 8 7 6 5 6 6 6 6 6 7 7 8 8 9 9 10 10 10 10 11 12 13 14 16 18 19 20 20 20 21 21 23 25 24 23 21 20 19 17 15 12 10 10 12 14 16 19 21 23 24 24 24 22 21 21 21 21 22 23 23 24 25 26 27 28 30 31 31 30 29 28
9 9 8 7 7 7 6 6 6 5 4 5 5 6 7 8 8 8 7 7 6 6 7 7 7 8 8 8 8 9 10 11 11 12 13 13 14 16 16 16 17 17 19 19 20 21 23 25 25 24 22 21 19 18 15 12 10 10 12 14 17 20 22 24 24 24 23 21 21 21 21 21 21 22 23 23 24 24 25 27 29 31 32 32 32 31
8 8 8 7 7 6 6 6 5 5 5 5 5 6 6 6 7 8 9 9 8 8 7 7 7 7 8 8 9 9 9 9 9 10 12 14 16 17 17 16 16 16 17 18 19 21 23 25 25 24 22 20 19 17 14 11 9 10 12 15 18 21 23 24 23 22 21 20 20 21 21 21 21 21 22 22 22 23 23 25 27 29 31 32 32 33
7 7 6 6 6 6 5 5 5 5 4 5 6 6 6 6 6 6 9 9 9 9 8 7 7 7 7 8 8 8 8 7 7 8 8 10 11 12 12 12 13 13 14 14 16 19 22 24 24 22 20 19 18 16 13 10 9 9 12 15 19 21 23 22 21 20 20 20 20 20 21 21 21 21 21 21 21 21 21 22 23 25 27 29 30 31
6 6 6 6 6 6 6 6 5 5 5 5 6 7 7 6 6 6 6 8 9 9 9 8 7 7 6 6 6 6 6 6 6 7 8 8 8 8 8 9 9 9 9 9 11 13 18 20 19 19 18 17 16 14 12 9 8 9 12 16 19 21 21 20 19 18 19 19 20 20 21 21 21 21 21 21 21 21 20 20 21 22 23 25 26 27
6 6 6 7 7 6 6 6 6 6 6 5 6 6 7 7 7 7 7 7 8 8 8 8 8 7 6 6 5 5 5 6 6 7 8 8 7 7 8 8 8 8 7 7 8 11 15 14 13 13 15 15 14 13 10 8 7 9 12 16 19 20 19 17 17 17 18 19 20 20 21 21 21 21 21 21 20 20 20 20 20 20 21 22 23 23
6 7 7 7 7 6 6 6 6 6 6 5 6 6 7 7 7 7 7 8 8 8 8 8 7 7 5 4 4 4 4 5 6 7 9 8 7 7 7 8 9 8 7 7 8 11 14 12 9 9 10 12 12 10 9 7 8 10 13 16 18 18 17 16 16 17 18 19 19 20 21 21 21 21 21 21 20 19 19 19 19 20 21 21 21 22
6 6 7 7 7 6 6 6 6 6 6 6 6 7 7 7 7 7 7 8 8 8 7 7 7 7 5 4 4 4 5 6 7 8 9 9 8 7 6 8 8 9 8 7 8 10 12 10 9 8 8 10 10 9 8 6 7 10 13 16 17 17 15 14 15 16 18 18 19 20 20 21 21 22 21 21 20 19 18 18 19 20 20 21 21 22
6 6 7 7 7 7 6 6 6 6 6 6 6 6 7 7 7 7 7 7 7 6 6 6 7 6 5 5 4 4 5 6 7 8 9 9 8 7 6 7 8 9 8 8 8 9 11 10 8 7 7 8 9 8 7 7 7 10 13 15 15 15 14 13 14 16 18 18 19 19 20 20 21 21 21 21 21 20 19 19 19 19 21 22 22 23
5 6 6 7 7 7 6 6 6 5 5 6 6 6 6 6 6 6 6 6 6 6 6 6 5 5 6 6 5 5 6 7 7 8 8 9 8 7 6 6 8 9 9 9 9 9 11 10 7 6 6 8 8 8 7 6 7 10 12 14 14 13 12 12 13 15 18 18 19 19 19 20 20 21 21 21 21 20 20 20 20 20 21 22 23 24
5 6 6 7 7 7 6 6 6 6 6 6 6 7 7 7 7 6 6 6 6 7 7 6 6 5 5 6 7 7 7 7 7 8 8 9 8 7 6 6 8 9 9 9 9 10 10 10 8 7 7 8 8 7 6 6 7 10 12 12 12 11 11 11 12 14 17 18 19 19 19 20 20 20 20 21 21 21 21 21 21 22 22 23 24 25
6 6 6 6 7 7 7 6 6 6 6 6 7 7 7 7 7 6 5 6 6 6 6 7 7 6 6 7 8 8 7 7 7 7 8 8 8 7 6 6 7 8 9 9 9 10 10 10 8 6 7 8 8 7 5 6 8 10 11 10 10 9 10 10 11 13 16 18 19 19 19 19 20 20 20 21 21 21 21 22 22 22 23 23 24 24
6 7 7 6 6 6 6 6 6 7 8 8 8 8 8 7 6 6 5 6 6 7 7 6 7 6 6 7 8 9 8 7 7 7 6 6 6 6 4 5 7 8 9 10 10 10 10 10 9 6 5 6 7 6 6 6 8 10 10 9 8 7 8 9 11 13 15 17 18 19 19 19 20 20 20 20 21 21 21 21 21 21 22 23 23 24
7 7 7 7 7 7 7 7 8 9 10 10 9 8 7 6 6 6 6 6 7 7 7 7 7 7 7 8 9 9 8 7 7 6 4 5 6 6 4 5 7 8 9 9 9 10 10 11 10 8 6 5 6 6 6 7 8 10 9 7 6 6 7 9 11 13 15 16 18 18 19 19 19 20 20 20 20 20 21 21 21 21 21 22 22 23
7 7 8 7 7 7 7 7 8 9 10 9 9 7 5 5 5 6 6 7 7 7 7 7 7 7 7 8 8 9 8 7 6 5 4 5 6 6 5 5 7 8 9 9 9 9 10 11 10 9 6 5 6 6 6 7 8 8 7 6 5 5 6 8 11 13 14 16 17 18 19 19 19 19 19 19 20 20 20 20 20 21 21 21 22 22
7 7 7 6 6 6 7 7 7 7 7 7 6 6 5 5 6 6 6 6 6 6 6 6 7 7 6 8 8 8 7 6 4 4 3 5 6 6 5 5 7 8 9 9 9 9 10 10 10 8 5 3 5 6 7 7 7 6 5 4 4 4 5 8 10 13 14 15 16 17 18 19 19 19 19 19 19 19 20 20 20 21 21 21 21 21
7 7 6 6 8 9 9 9 8 8 7 6 5 5 5 6 7 7 6 5 5 5 5 6 7 7 6 7 7 7 5 4 3 4 3 4 5 6 5 5 6 8 9 9 9 9 10 10 9 7 4 1 4 5 6 6 5 4 4 4 3 3 5 7 10 13 14 15 16 17 18 19 19 19 19 19 19 19 20 20 20 20 20 20 20 20
11 11 11 12 14 15 16 16 15 14 13 10 8 6 6 6 5 5 4 4 4 5 5 6 6 6 6 6 6 6 5 4 3 3 3 4 5 6 5 5 5 7 9 10 9 9 9 9 8 6 3 1 2 4 5 4 3 2 5 5 4 3 3 6 10 12 14 15 16 17 18 18 19 19 19 19 19 19 20 20 20 20 20 19 19 19
17 17 18 18 18 18 18 18 18 18 17 15 13 10 7 5 4 4 4 4 4 5 5 5 6 6 5 5 5 5 5 4 3 2 3 4 5 5 5 5 5 7 9 10 9 9 9 9 8 6 2 1 2 2 3 3 1 2 6 7 6 5 3 5 9 12 13 14 15 16 17 18 18 18 18 18 19 19 19 20 20 19 18 17 16 16
17 17 18 17 17 17 17 17 16 16 16 16 16 14 9 5 4 4 4 4 4 5 5 5 6 5 5 5 5 6 6 4 3 2 3 4 4 5 5 5 6 7 8 8 9 9 9 8 7 4 2 1 2 1 2 2 1 2 5 8 8 7 4 4 7 11 13 14 14 16 17 18 18 18 17 17 18 18 19 19 19 18 16 13 11 10
15 16 16 16 16 16 15 15 15 15 15 16 16 14 9 5 4 4 4 4 4 5 5 5 5 5 5 6 6 6 6 3 2 3 4 4 4 4 5 5 6 6 7 6 6 6 5 4 3 2 2 2 1 0 1 1 2 2 4 7 8 7 5 3 6 10 13 13 14 15 17 18 18 17 16 16 17 17 18 19 18 16 12 10 9 8
10 11 12 12 12 12 11 10 11 12 14 15 15 13 9 5 4 4 4 4 4 5 5 5 5 5 5 5 6 5 4 2 2 4 5 5 4 4 5 5 6 6 5 5 4 3 2 2 2 3 4 3 2 1 1 0 1 2 1 5 7 6 5 3 5 9 12 13 14 16 17 18 18 17 16 16 16 17 17 17 15 12 9 8 7 7
8 8 7 7 7 7 7 7 8 9 10 12 12 10 8 5 4 4 4 4 4 5 5 5 5 5 4 4 4 4 3 3 3 5 6 5 4 4 5 5 5 5 5 4 4 3 3 3 3 4 5 4 3 2 1 0 0 1 1 3 4 5 4 4 4 7 10 12 14 15 17 18 18 17 17 16 16 16 16 15 13 10 8 7 7 7
7 7 6 6 5 5 5 5 6 6 7 7 7 7 7 6 5 5 4 4 4 5 5 5 5 5 4 4 4 4 4 4 5 6 6 5 4 4 4 5 5 5 4 3 3 3 3 3 4 5 6 4 4 3 2 0 1 0 1 2 3 3 3 3 3 5 6 9 12 14 16 17 18 18 17 17 17 17 16 15 12 9 7 7 7 7
7 6 5 5 5 4 4 4 5 5 5 5 5 5 5 6 6 6 5 5 5 5 5 5 5 5 4 4 4 5 5 5 6 7 7 5 4 4 4 4 5 5 4 4 3 3 3 3 4 4 5 4 3 3 2 0 1 1 1 2 2 2 3 2 2 3 4 6 9 11 13 15 17 17 18 18 18 18 17 15 13 10 8 7 7 7
7 6 5 5 5 4 4 4 4 5 5 5 5 5 5 5 5 6 6 5 5 5 5 5 5 5 5 4 4 5 6 6 7 8 7 5 4 4 4 5 5 5 5 4 3 3 3 3 4 4 4 4 3 3 2 0 1 2 2 2 2 1 2 2 2 2 3 4 5 7 9 11 13 15 16 17 18 18 17 16 14 11 9 8 7 7
6 6 5 5 5 5 5 5 5 5 5 5 5 5 5 5 5 5 6 6 5 5 5 5 5 5 5 4 5 5 6 6 7 7 7 5 4 4 4 5 5 4 4 4 4 3 2 3 5 5 4 3 3 2 2 1 1 3 2 2 2 1 1 1 1 2 3 4 5 6 6 7 8 9 11 14 16 17 18 16 15 13 11 9 8 7
6 6 6 5 5 5 6 6 6 6 6 6 6 6 6 6 6 6 6 6 6 6 7 6 6 6 6 5 6 6 7 7 7 8 7 6 5 4 4 4 4 4 4 4 4 4 3 4 5 6 4 3 2 2 3 1 1 3 3 2 2 2 1 1 2 2 4 5 5 5 5 5 5 6 8 12 14 16 17 17 15 13 12 10 9 8
6 6 5 5 5 5 6 6 6 6 6 6 6 6 6 6 6 6 6 6 6 6 7 8 8 8 8 7 7 7 7 7 8 8 8 7 6 5 4 4 5 5 4 4 4 4 4 5 5 5 4 3 2 2 4 3 1 3 3 2 2 2 2 2 2 3 5 6 6 5 5 5 5 6 7 10 12 14 16 16 15 13 12 11 10 9
6 6 5 5 5 5 5 5 6 6 6 6 6 7 7 7 7 7 6 6 6 7 7 7 7 8 11 11 10 10 9 10 10 11 11 8 7 6 6 5 6 5 4 4 4 4 4 4 4 4 3 3 3 4 7 5 1 2 3 2 2 2 2 2 3 4 5 6 6 5 5 5 6 7 7 8 8 9 10 10 11 11 11 10 9 9
6 6 6 6 5 5 5 5 5 6 6 6 6 7 7 7 7 7 6 6 6 6 7 7 7 8 9 11 12 12 12 12 12 12 11 9 8 7 6 6 6 6 5 4 4 4 4 3 3 3 3 3 4 5 6 5 3 2 3 2 2 2 2 2 3 4 5 5 5 5 5 5 6 7 6 6 7 7 7 7 8 8 8 7 7 8
7 6 6 6 6 5 5 5 6 6 6 6 7 7 6 6 6 6 5 5 6 6 6 7 7 7 8 9 10 10 11 10 9 9 9 8 7 6 6 6 6 6 5 4 3 3 4 4 4 4 4 4 4 4 4 5 4 2 3 2 1 1 2 2 3 4 5 5 5 5 5 5 6 6 6 5 6 6 7 6 7 7 7 6 6 6
7 7 6 6 6 6 6 6 6 6 6 6 6 5 5 5 5 5 5 5 5 5 5 6 6 6 6 7 7 8 8 8 8 7 6 6 7 6 5 6 5 5 5 4 4 3 4 4 5 5 5 5 6 6 5 6 6 4 0 1 1 1 2 3 3 4 5 5 5 6 6 7 7 7 6 5 5 5 5 6 7 7 6 5 5 6
8 7 7 6 6 6 5 6 6 6 6 6 5 5 5 5 5 6 6 5 5 5 5 5 6 6 6 5 5 5 5 6 6 6 6 7 6 6 5 5 5 4 4 4 4 4 4 5 5 6 6 5 5 4 4 5 6 4 1 1 2 2 3 3 3 3 5 5 6 7 8 8 8 7 7 6 5 5 5 6 7 7 6 5 5 5
7 7 6 6 6 6 6 7 7 6 6 5 5 5 5 5 6 6 6 6 6 6 6 6 6 6 6 5 5 5 5 5 6 7 7 6 7 7 7 6 5 4 3 3 3 4 4 5 5 6 5 5 4 4 6 6 5 4 1 2 3 2 2 2 2 3 5 6 7 7 8 8 7 7 6 6 5 5 5 6 7 6 5 5 5 5
7 7 6 6 6 6 6 6 6 6 6 6 6 6 6 6 7 7 6 6 6 6 6 6 5 5 5 5 6 6 6 6 6 6 6 7 7 7 7 7 6 4 3 2 3 4 4 5 5 5 5 5 5 4 4 4 3 2 2 3 3 3 2 2 3 4 5 6 6 7 8 7 7 6 6 6 5 5 5 6 6 6 5 5 5 6
6 6 6 6 7 7 7 7 6 6 6 6 6 6 6 7 7 7 6 6 6 6 6 6 5 5 5 5 6 6 6 6 6 6 6 7 8 9 8 7 6 5 3 3 3 3 4 4 5 5 5 4 4 3 2 3 2 1 3 4 4 4 3 3 4 5 6 6 6 7 7 7 7 7 7 7 6 6 6 6 6 6 6 5 5 6
6 7 7 7 7 7 8 7 7 6 6 6 6 6 7 7 6 6 7 6 6 6 6 5 5 5 5 5 6 6 6 6 6 6 6 6 7 7 6 6 6 5 4 3 3 3 3 4 5 5 5 3 3 3 4 5 4 3 2 4 5 4 4 4 4 5 6 6 6 6 7 7 7 7 6 6 6 6 6 6 6 6 5 5 6 6
8 8 7 7 7 7 7 7 7 7 7 7 7 7 7 7 7 7 7 7 6 6 6 6 5 5 5 6 6 6 6 7 7 7 7 7 7 7 6 6 6 5 4 4 4 3 3 4 5 5 5 4 4 5 6 6 5 4 2 3 4 4 4 3 3 4 5 6 6 6 6 7 7 7 6 6 6 6 6 6 6 6 5 5 5 5
8 8 8 8 7 8 8 7 7 7 7 7 7 7 7 8 8 8 7 7 6 6 6 6 6 5 6 6 6 6 6 6 6 7 7 7 7 7 7 6 6 5 4 4 4 4 3 3 5 6 6 6 5 5 6 6 6 5 3 3 4 5 5 4 3 3 4 4 5 5 5 6 7 7 7 6 5 5 5 5 6 6 5 5 5 5
8 8 8 8 8 8 8 8 8 8 7 7 7 7 7 8 9 9 7 7 6 6 6 6 6 6 6 6 6 7 7 7 6 6 6 7 7 7 7 7 6 5 4 3 3 3 3 2 3 6 8 7 6 6 6 6 6 5 3 3 4 5 5 4 3 3 3 4 4 5 5 6 6 7 7 7 6 5 5 5 5 6 5 5 4 4
8 8 8 8 8 8 8 8 8 8 8 8 8 7 7 7 7 7 7 7 6 6 6 6 6 6 6 6 7 7 7 7 6 6 6 6 7 7 7 7 7 6 5 3 2 1 2 2 2 5 11 12 11 8 6 6 6 5 4 4 4 4 4 4 3 3 3 4 5 6 6 6 5 6 6 7 7 6 5 5 5 5 5 4 4 4
8 8 8 8 8 8 8 8 8 8 8 8 8 8 7 7 7 7 7 7 6 6 6 6 6 6 6 7 7 7 7 7 7 7 7 7 7 7 7 7 7 6 5 4 3 2 2 2 2 4 9 14 15 13 7 7 6 5 4 5 4 4 4 3 3 3 4 5 5 6 6 6 5 5 6 6 6 6 5 5 4 4 4 4 4 5
Wind_Direction
305 307 309 310 309 307 307 311 315 318 318 319 318 317 315 315 313 311 311 311 309 305 303 301 299 299 299 301 302 303 304 305 306 306 306 305 304 303 302 301 299 296 293 291 290 291 292 292 289 283 274 264 259 259 262 267 271 275 279 283 286 288 290 292 293 289 279 254 233 221 216 215 214 214 213 211 208 206 203 203 207 212 216 215 210 202
307 308 308 309 309 307 306 310 314 317 317 317 317 316 315 314 312 311 310 309 307 306 306 304 303 301 300 300 302 303 304 305 306 306 305 303 302 300 299 297 295 293 291 290 290 290 290 291 288 282 274 265 258 255 256 260 264 269 274 278 282 285 287 290 291 290 286 263 241 226 218 216 215 215 214 211 209 206 203 203 206 211 216 215 210 201
312 311 311 310 308 307 305 309 312 313 314 314 314 314 313 312 312 311 310 309 309 308 306 306 305 303 301 300 301 303 305 306 306 305 304 302 299 298 296 294 292 290 288 287 287 287 288 288 285 280 272 264 257 252 251 253 258 263 269 274 278 281 284 287 289 290 287 269 248 229 219 216 215 215 214 212 209 206 203 203 205 210 215 214 208 199
313 312 312 309 306 304 303 307 309 311 313 312 312 312 312 312 311 310 308 308 308 308 306 305 304 303 301 300 301 304 305 306 306 306 304 301 299 297 294 291 289 287 284 284 284 284 285 285 283 277 270 261 255 250 247 249 253 259 265 271 275 279 281 284 287 289 288 272 252 232 219 215 213 213 213 211 208 205 203 202 204 208 213 212 207 197
312 311 310 307 304 302 302 304 307 310 312 312 312 313 314 312 310 308 307 307 308 308 307 304 303 301 300 300 302 305 307 308 307 306 305 302 300 297 294 291 288 286 283 282 282 283 284 284 281 275 266 259 253 249 246 247 251 257 264 269 274 277 280 283 285 286 284 271 252 232 218 213 211 211 211 210 207 205 202 201 203 206 211 210 205 196
309 307 305 302 301 301 303 305 309 313 315 314 314 314 314 312 309 308 308 311 311 310 307 303 300 299 299 301 305 307 309 309 309 308 306 304 301 299 297 294 291 288 285 283 283 284 285 285 281 274 264 257 253 250 248 248 251 257 264 270 274 277 279 281 282 282 280 268 249 230 216 210 208 208 209 208 207 204 202 200 200 202 206 207 203 197
305 303 302 298 297 297 299 305 311 317 319 317 316 315 314 311 309 309 311 314 313 310 305 301 299 299 301 304 307 309 310 310 309 308 306 305 304 303 301 298 296 292 288 286 285 285 286 287 282 274 264 257 253 251 249 250 253 259 266 271 274 276 278 279 279 278 275 263 246 227 213 207 205 206 207 207 206 204 202 200 200 200 202 204 203 199
302 301 300 298 297 297 298 304 312 317 319 318 318 317 315 312 311 312 314 314 312 308 304 304 304 305 307 308 310 311 311 309 309 308 308 308 307 306 304 301 298 294 290 288 287 287 288 287 282 274 264 256 252 250 250 250 255 261 268 271 274 276 277 277 277 275 270 257 241 223 210 205 203 203 205 205 205 204 203 201 200 200 201 203 205 204
301 301 300 299 299 301 303 307 312 316 319 318 318 316 314 314 315 317 318 317 314 311 309 310 311 311 311 310 310 310 309 307 307 308 309 310 309 308 305 302 298 294 291 289 288 288 289 287 282 274 263 255 251 250 250 251 255 262 268 272 274 275 276 275 274 270 264 250 234 219 207 203 201 202 203 203 203 202 202 202 201 201 202 204 206 207
300 300 300 299 299 301 304 308 312 316 318 317 315 313 313 316 319 321 321 320 318 316 314 315 315 314 313 312 311 310 309 306 306 306 309 309 308 306 305 301 297 293 290 290 290 290 290 286 280 272 261 253 250 249 249 250 255 262 268 271 274 275 275 273 270 265 256 242 226 213 205 201 200 200 201 201 200 200 199 200 201 201 202 204 206 208
301 301 300 299 300 301 303 306 310 315 319 316 314 313 314 319 322 322 321 320 320 319 317 315 315 315 314 313 312 310 308 307 308 309 309 309 308 307 305 302 298 294 293 294 294 293 290 284 276 267 256 250 247 247 248 248 253 261 268 272 274 274 274 270 265 258 247 231 218 208 202 199 198 198 198 198 198 196 195 196 197 199 200 202 205 207
302 302 301 301 301 303 304 306 309 313 319 320 319 319 319 322 321 319 318 318 318 318 316 315 314 313 311 309 308 307 306 309 312 314 312 311 312 312 309 306 302 300 299 299 297 293 288 279 270 259 249 245 244 244 245 246 252 262 269 274 274 274 272 266 258 248 234 221 211 204 200 197 196 196 196 196 195 193 191 190 191 193 196 198 201 203
300 301 300 301 302 304 307 310 313 316 321 323 323 322 320 320 319 316 313 313 313 314 314 313 312 310 308 303 301 302 306 313 316 317 314 314 315 316 314 309 306 304 303 302 299 293 285 272 260 248 241 240 240 241 242 243 252 264 272 275 276 274 270 261 249 236 222 212 205 200 197 196 194 193 193 193 192 190 187 185 185 186 189 192 194 197
301 302 300 300 301 304 308 312 314 316 319 322 321 319 315 315 316 315 313 311 310 310 309 310 310 310 308 302 298 301 313 321 321 319 316 313 313 315 314 308 305 303 302 299 294 288 282 268 253 240 235 235 237 238 237 241 252 265 272 275 276 274 269 255 239 224 212 204 199 197 195 194 193 191 190 189 188 186 184 182 181 181 183 186 189 193
303 303 300 300 301 304 308 310 312 313 316 318 317 314 311 312 314 316 315 313 311 310 310 310 310 309 306 303 305 314 329 330 326 321 316 311 310 311 312 307 303 300 296 292 289 285 281 263 244 228 226 229 231 231 230 237 254 266 269 273 273 271 265 249 230 215 203 198 195 193 193 192 192 190 189 187 184 182 180 179 178 179 181 185 189 193
302 300 298 298 300 302 305 308 309 311 313 314 314 313 311 313 315 315 314 312 311 312 314 317 317 315 309 308 315 328 341 335 328 321 315 309 307 308 311 305 300 296 292 286 286 285 281 263 240 222 220 223 224 224 224 228 247 261 265 267 268 267 262 244 225 208 197 192 190 190 190 191 191 190 188 185 182 180 177 176 177 179 182 186 190 194
298 296 295 297 298 300 303 304 305 307 309 310 310 309 310 310 310 310 309 309 310 312 316 320 321 319 315 315 322 334 345 336 326 318 311 304 302 303 306 299 294 291 287 283 281 280 279 265 244 220 216 217 218 219 220 229 244 255 261 261 261 259 255 240 219 203 192 188 186 186 186 187 188 187 186 184 181 178 176 175 176 178 182 186 190 193
296 296 296 297 297 298 300 301 302 303 304 305 306 306 305 303 301 301 303 306 309 312 314 316 315 314 312 312 316 327 342 332 322 313 306 300 298 299 300 293 287 284 282 280 277 276 276 269 251 224 213 213 213 214 217 227 243 252 255 255 254 251 247 234 215 198 188 184 182 181 181 182 182 182 181 179 176 175 173 174 175 178 181 186 189 191
298 298 296 295 295 295 295 296 298 300 303 305 307 306 302 298 296 296 298 303 307 309 309 309 307 304 302 300 305 313 327 322 314 306 300 297 296 297 298 291 286 283 282 282 282 281 280 276 260 233 211 209 208 210 215 228 244 251 252 250 247 245 242 231 213 196 185 179 178 177 176 176 175 174 173 171 169 168 168 170 172 175 179 183 185 187
297 294 291 291 291 290 289 289 292 297 301 301 301 299 296 293 292 293 297 303 305 304 302 300 299 298 299 298 300 305 314 313 307 298 292 290 290 293 295 292 291 291 291 289 289 288 287 285 273 243 209 207 206 206 212 230 243 248 247 243 241 239 237 226 210 194 181 175 173 172 171 170 168 167 165 164 162 161 162 164 167 171 174 177 179 181
289 285 281 280 282 284 285 288 291 294 294 294 292 288 286 286 288 294 301 305 303 299 296 293 294 297 301 299 299 300 305 304 299 293 287 286 286 288 294 299 300 299 296 293 292 292 294 296 291 274 230 210 204 205 212 228 240 243 237 233 231 232 234 221 205 190 177 170 168 168 167 165 163 161 160 159 158 157 157 159 162 166 170 173 174 174
279 277 274 272 272 275 281 285 287 287 285 283 279 276 277 282 290 299 304 302 298 294 292 292 294 297 298 294 293 293 295 291 286 282 282 287 289 293 307 311 305 299 294 293 294 297 300 299 295 286 264 221 202 199 207 224 234 234 224 216 216 222 226 216 202 187 173 166 163 162 161 160 158 157 156 155 155 154 154 156 160 164 168 170 171 171
271 272 272 270 268 270 276 277 276 275 273 269 267 267 272 283 294 298 298 293 289 288 290 292 294 293 291 289 288 289 287 279 273 272 281 292 299 305 318 314 304 296 290 292 296 299 299 293 288 281 268 214 192 192 200 218 225 223 208 196 197 208 218 209 197 184 170 162 158 157 155 154 153 152 152 152 152 152 152 155 159 163 167 169 170 170
272 272 272 270 269 268 269 269 266 264 261 260 261 265 273 281 283 282 280 280 283 287 291 294 294 293 291 290 289 288 287 293 304 316 315 304 301 303 310 307 300 295 292 293 295 296 293 288 285 281 272 200 179 185 199 213 219 214 174 165 172 191 206 203 193 181 168 160 155 152 150 148 148 147 147 147 148 149 151 154 158 162 166 168 169 169
286 284 283 283 283 282 281 280 280 281 283 283 284 286 284 281 280 279 281 285 290 294 296 298 298 297 297 296 293 292 292 313 337 344 328 305 296 295 298 298 298 298 297 296 295 292 289 288 288 287 286 184 170 185 202 212 212 190 133 125 133 162 188 192 186 178 167 159 153 148 145 143 142 142 143 144 146 147 149 152 156 160 163 165 167 167
310 310 308 306 304 303 304 305 308 311 315 313 310 302 292 290 291 297 303 303 304 306 306 302 299 297 297 297 296 296 300 310 322 326 320 303 297 295 295 299 303 303 300 297 295 292 289 289 290 291 298 90 158 192 212 219 209 150 100 94 96 115 162 180 179 174 166 159 152 146 141 138 137 138 139 142 144 146 148 151 154 158 160 162 164 166
319 318 316 315 315 316 317 320 322 321 320 316 311 307 306 313 319 318 311 314 317 316 309 301 297 296 296 296 295 297 302 302 308 320 321 301 293 292 298 309 313 309 303 298 294 289 285 284 284 286 296 85 126 192 229 235 224 87 78 76 74 78 112 164 172 170 163 157 151 144 138 134 133 133 136 138 141 144 146 149 152 155 157 159 162 166
321 320 320 319 320 321 324 326 326 323 320 315 313 315 323 332 332 321 314 320 319 312 299 294 295 297 300 300 300 298 296 291 299 321 324 302 292 292 305 316 318 313 308 301 294 286 277 271 271 276 304 81 107 166 244 262 305 43 61 66 63 62 72 141 161 162 158 154 148 142 136 132 131 131 132 135 137 140 143 146 148 151 155 157 161 166
318 318 317 318 320 322 326 327 325 322 319 317 319 324 336 338 330 318 313 314 307 299 290 290 293 298 302 304 302 297 287 278 305 342 332 310 298 297 311 318 320 317 313 309 301 291 273 266 273 300 350 40 66 129 244 292 319 356 42 59 59 56 56 112 149 153 151 149 145 140 135 132 131 130 131 133 134 136 138 141 144 147 152 155 159 163
314 313 313 314 316 318 321 319 318 317 317 320 323 328 334 331 318 306 300 297 292 289 288 291 294 298 303 305 303 297 284 288 349 353 337 319 308 307 317 318 321 322 322 322 320 316 309 314 334 352 0 9 9 346 255 346 319 319 359 56 57 52 47 79 127 141 144 144 142 139 136 133 133 133 134 134 134 135 137 138 140 143 147 150 153 157
311 310 308 308 310 311 312 310 310 312 315 318 321 323 324 317 305 294 287 283 283 285 287 290 293 296 301 304 302 297 292 310 336 341 334 318 308 309 317 316 318 321 324 325 326 325 318 321 334 347 354 356 351 335 280 171 269 302 335 55 55 48 37 56 97 124 134 137 137 136 135 134 135 136 138 138 139 139 140 140 140 140 142 144 147 151
310 309 308 307 307 306 306 307 307 308 309 311 311 310 307 304 298 292 285 280 279 280 283 286 288 290 292 291 289 289 291 299 312 320 320 310 304 305 311 311 311 313 315 315 313 311 309 315 325 335 341 345 341 328 287 192 149 130 43 64 56 43 31 44 75 104 122 129 131 131 132 133 136 138 141 143 144 145 146 146 145 142 141 142 143 145
312 311 309 309 308 307 305 304 303 303 302 301 299 297 297 296 294 290 285 280 277 276 277 280 282 283 282 279 277 277 279 285 294 301 307 304 301 301 305 306 306 307 308 308 303 294 286 300 313 321 325 326 322 315 298 75 110 106 85 80 65 44 28 41 66 91 109 121 123 124 125 129 134 138 144 146 148 150 151 151 150 148 144 143 141 141
313 313 313 312 311 309 306 303 302 301 300 297 296 295 293 292 290 289 286 281 276 273 271 273 274 276 276 275 273 272 274 277 284 292 300 299 297 297 301 301 303 305 310 313 312 304 286 296 305 310 310 310 306 300 291 346 94 98 87 89 84 63 33 43 74 99 105 112 113 113 114 121 129 136 144 148 150 152 154 154 153 152 149 146 143 141
315 317 319 319 319 317 315 314 311 308 306 302 300 298 297 294 291 289 286 282 277 272 267 265 265 265 266 267 269 271 273 276 282 287 293 291 290 293 297 295 298 303 309 314 318 317 306 305 305 304 300 301 301 297 283 295 92 91 80 81 87 86 55 46 71 96 99 99 98 98 99 110 122 134 144 149 152 153 154 154 153 152 150 147 145 143
321 324 327 327 327 326 325 324 322 318 315 312 308 305 301 298 294 290 286 283 279 276 273 268 263 260 256 255 257 262 268 273 279 283 284 283 283 285 288 287 290 296 302 308 313 316 313 309 303 298 290 290 298 306 297 307 71 86 79 77 82 87 79 54 54 69 83 84 85 87 93 107 120 132 141 146 149 150 152 152 150 149 147 146 145 144
326 328 331 331 330 329 328 327 325 322 319 316 312 307 303 298 294 290 286 282 280 279 278 275 271 265 260 254 251 252 259 266 271 273 273 272 270 270 271 277 280 285 288 295 303 309 312 311 308 304 294 296 315 323 310 307 31 83 75 77 84 92 90 69 56 60 72 74 78 85 96 112 122 127 131 138 142 145 148 147 146 145 143 143 142 142
329 331 331 331 331 330 327 325 322 319 315 311 307 303 299 294 290 288 287 285 282 280 279 278 275 272 269 266 261 257 256 259 261 263 262 260 258 257 259 266 270 272 271 276 286 297 304 309 312 313 311 317 320 312 304 303 339 83 77 77 87 97 98 81 67 64 71 75 80 89 104 115 120 123 125 131 136 140 144 145 144 141 138 137 137 137
333 332 333 334 333 332 328 323 319 315 310 305 301 299 295 294 291 290 289 287 286 283 281 280 280 279 277 273 270 267 263 260 259 258 257 253 249 247 251 259 264 265 263 262 266 275 284 289 298 307 313 316 315 311 306 311 335 53 84 75 76 87 92 82 75 72 77 81 86 93 105 109 112 116 119 126 132 136 140 143 143 142 139 134 131 129
335 335 334 335 335 332 327 323 318 313 308 304 302 301 300 301 301 300 296 295 293 291 288 286 285 284 282 280 277 274 271 266 263 261 258 252 247 244 246 253 261 265 266 261 258 258 262 265 269 274 281 290 300 306 309 312 325 3 90 79 73 81 92 88 83 82 86 89 91 93 94 93 94 96 101 110 119 127 132 135 138 139 140 139 135 130
339 337 336 334 333 331 327 323 319 316 313 310 309 309 310 312 313 312 310 310 309 308 305 302 299 295 291 285 281 279 277 276 274 272 269 265 261 257 254 257 262 266 269 265 260 255 252 258 263 266 266 271 278 284 288 297 301 306 59 96 97 94 91 88 90 93 94 92 89 86 82 79 75 75 78 84 92 103 114 121 125 128 132 134 137 138
340 339 336 334 332 330 329 326 325 324 321 318 317 318 320 322 322 321 322 324 325 325 324 322 318 314 309 304 299 296 298 298 297 296 294 291 289 287 282 277 274 271 271 271 268 262 257 258 259 260 259 263 270 280 290 297 299 298 249 120 108 90 79 74 81 93 95 92 86 81 76 74 70 67 65 67 70 77 87 100 109 116 123 127 131 134
340 338 334 333 331 329 328 330 331 331 329 328 327 327 328 327 327 327 328 329 330 330 330 327 324 320 317 319 321 321 319 316 313 313 313 311 310 310 309 305 299 291 283 282 283 281 275 269 265 263 263 265 269 277 285 294 296 294 168 123 111 97 84 75 77 84 86 85 83 81 77 76 73 69 64 61 58 60 67 78 86 94 105 113 118 120
337 335 335 335 334 333 334 337 337 336 334 334 334 333 333 332 331 331 333 332 332 332 333 330 325 322 323 327 329 328 326 324 322 320 319 322 324 325 324 323 318 310 297 290 291 295 297 293 287 281 274 264 257 259 274 286 287 272 138 112 98 88 90 98 93 87 83 81 81 82 83 84 82 76 66 59 54 52 55 67 73 77 81 92 102 109
337 338 339 340 340 340 341 340 339 338 338 338 338 338 337 335 335 336 338 336 335 334 334 332 331 330 334 335 334 333 331 331 332 331 327 328 330 331 331 330 327 320 305 293 294 303 311 312 308 300 285 265 257 265 302 319 324 2 101 98 89 77 73 82 90 93 92 89 88 88 90 90 87 79 69 60 53 48 48 58 66 72 76 83 93 103
342 342 344 345 344 343 342 341 340 340 341 343 343 342 340 338 338 339 341 339 338 336 336 337 338 338 339 338 337 336 335 335 335 335 334 333 334 334 335 333 330 325 318 308 303 305 312 317 320 319 317 316 333 360 11 1 358 10 73 95 96 91 81 78 85 94 102 101 99 99 98 93 86 79 73 65 57 50 44 49 56 64 71 80 89 98
344 345 346 347 346 344 342 342 341 342 344 346 347 346 344 342 342 343 344 343 341 339 340 341 342 342 341 341 339 338 336 336 335 334 334 334 335 335 334 331 327 321 312 304 297 298 306 324 336 344 349 355 4 9 11 8 4 2 16 77 94 93 81 73 76 87 99 104 108 109 106 96 89 84 80 73 65 56 46 43 45 50 57 69 81 91
343 345 346 347 347 346 343 343 343 344 346 348 348 348 347 346 347 348 345 344 342 343 345 346 345 344 344 344 342 340 339 336 334 333 334 334 334 334 333 330 326 318 307 296 290 289 299 327 353 7 14 14 12 8 3 2 359 355 347 38 77 87 80 71 67 73 85 93 102 105 105 101 100 98 92 81 70 59 50 43 40 40 42 53 70 87
342 344 346 348 348 347 345 343 344 344 346 348 349 349 348 348 350 350 346 344 343 345 348 348 347 346 346 345 343 342 341 339 336 335 336 336 335 333 333 332 330 324 315 300 286 277 279 309 2 25 31 27 22 14 4 359 355 353 360 38 67 81 84 76 67 63 69 78 82 85 89 97 103 104 100 88 78 68 57 48 42 37 35 41 58 77
342 343 346 347 348 347 345 344 344 345 347 349 349 349 348 348 349 349 347 345 345 347 350 350 349 347 347 346 345 344 344 342 340 339 340 338 336 334 333 334 334 333 327 317 304 288 284 295 1 31 36 32 28 21 12 1 355 357 17 36 51 66 79 76 70 64 69 77 81 83 86 91 95 98 96 92 86 77 66 56 45 37 30 38 52 69
341 342 345 347 348 348 346 345 345 346 347 349 350 349 348 348 348 348 348 348 348 349 351 352 351 350 350 348 346 345 345 344 343 343 341 339 336 334 333 336 337 337 335 332 332 333 332 330 357 22 30 27 25 23 19 7 0 2 22 31 38 49 66 73 74 74 79 83 87 89 90 91 91 93 97 98 93 85 73 63 50 38 27 39 58 74